[[{"header":{"parameterUnit":"m.s-1","parameterCategory":1,"la1":30.2991,"la2":30.254,"lo1":-89.0895,"lo2":-89.0444,"dy":0.0017,"dx":0.0017,"nx":28,"ny":28,"refTime":"2025-04-01T03:00:00:Z","depth":0,"parameterNumber":2,"parameterNumberName":"U-component_of_WINDS"},"data":[0,0,0,0,0,0,0,0,0,0,0,0,0,0,0,0,0,0,0,0,0,0,0,0,0,0,0,0,0,0,0,0,0,0,0,0,0,0,0,0,0,0,0,0,0,0,0,0,0,0,0,0,0,0,0,0,0,0,2.8617,2.8617,0,2.8621,2.8621,2.8621,2.8503,2.8499,2.8496,2.8493,2.8502,2.8505,2.8508,0,0,0,0,0,0,0,0,0,0,0,0,0,2.8511,2.8514,2.8617,2.8617,2.8617,2.8621,2.8621,2.8621,2.8503,2.8499,2.8495,2.8492,2.8501,2.8505,2.8508,0,0,0,0,0,0,0,0,0,0,0,0,0,2.8541,2.8515,2.8617,2.8558,2.8553,2.8621,2.8621,2.8621,2.8504,2.8499,2.8494,2.849,2.85,2.8504,2.8509,2.8634,0,0,2.8524,2.8526,0,0,0,0,0,0,0,0,2.8539,2.8545,2.8567,2.8563,2.8557,2.8556,2.8587,2.8626,2.8505,2.8523,2.8493,2.8488,2.8524,2.8527,2.8538,2.8635,2.8635,2.8524,2.8527,2.8529,2.853,0,0,0,0,0,0,0,2.8537,2.8544,2.8619,2.8568,2.8561,2.8534,2.8533,2.8594,2.855,2.8521,2.8512,2.8514,2.852,2.8534,2.8537,2.8635,2.8524,2.8528,2.8531,2.8533,2.8838,2.8843,0,0,0,0,0,0,2.8543,2.8543,2.8619,2.8619,2.8536,2.854,2.8538,2.8562,2.8549,2.8543,2.8518,2.8509,2.8528,2.8532,2.8537,2.8685,2.8529,2.8534,2.8536,2.8833,2.8839,2.8845,0,0,0,0,0,0,2.8541,2.8551,2.8618,2.8579,2.8585,2.8546,2.8574,2.8564,2.8577,2.8547,2.8539,2.854,2.8524,2.8531,2.8611,2.8684,2.8536,2.854,2.8827,2.8835,2.8842,2.8981,0,0,0,0,0,0,2.8538,2.8551,2.8596,2.858,2.8588,2.8691,2.8578,2.8568,2.8585,2.8573,2.8565,2.8559,2.8521,2.8605,2.8616,2.8688,2.8544,2.882,2.883,2.884,2.897,2.8993,2.9012,0,0,0,0,0,2.8535,2.8636,2.8599,2.8609,2.8644,2.8696,2.87,2.8653,2.8591,2.8638,2.862,2.856,2.8674,2.8614,2.8626,2.87,2.8815,2.8828,2.8839,2.8961,2.8988,2.9012,0,0,0,0,0,0,2.8662,2.8632,2.8592,2.869,2.8696,2.8675,2.8733,2.8683,2.8708,2.8695,2.8636,2.8636,2.8727,2.8721,2.8655,2.8822,2.8734,2.8749,2.8823,2.8849,2.887,2.887,2.8548,0,0,0,0,0,2.8701,2.8744,2.8717,2.8806,2.8811,2.8772,2.8793,2.8756,2.876,2.8763,2.8749,2.8758,2.8795,2.8821,2.8854,2.8968,2.8967,2.9025,2.9047,2.9064,2.9078,2.914,2.9167,2.8884,2.8883,2.8883,0,0,2.8783,2.8772,2.8803,2.8832,2.8832,2.888,2.8775,2.8829,2.8865,2.8771,2.8847,2.8838,2.8843,2.8942,2.8985,2.894,2.9156,2.9079,2.9093,2.9097,2.9155,2.9182,2.9206,2.8892,2.889,2.8889,0,0,2.8957,2.8952,2.9027,2.903,2.9032,2.9006,2.9024,2.9011,2.9002,2.9076,2.9008,2.905,2.9116,2.9123,2.9135,2.9315,2.9262,2.9327,2.9438,2.95,2.9522,2.9542,2.9608,2.9632,2.9341,2.9341,2.9342,0,2.9059,2.9127,2.9073,2.9132,2.9148,2.9065,2.9142,2.9147,2.9161,2.9174,2.9124,2.9206,2.9203,2.9304,2.9348,2.936,2.9381,2.9328,2.9523,2.9542,2.956,2.9622,2.9647,2.9349,2.9348,2.9348,2.9347,0,2.9253,2.9302,2.9362,2.9377,2.9399,2.9467,2.9425,2.9455,2.9417,2.9397,2.9476,2.947,2.9501,2.9522,2.9485,2.9619,2.9591,2.9533,2.9443,2.9596,2.9654,2.9677,2.9361,2.9358,2.9356,2.9354,0,0,2.9507,2.9491,2.9515,2.9521,2.9518,2.9555,2.9621,2.9651,2.9678,2.9691,2.9746,2.9804,2.9751,2.9765,2.9729,2.9783,2.9928,2.9718,2.9717,2.9759,3.0078,3.0122,3.0151,2.9893,2.9897,2.99,3.0078,0,2.9677,2.9786,2.9741,2.9856,2.9901,2.9824,2.9881,2.9887,2.987,2.9908,2.989,2.9933,2.9858,2.9867,2.9916,2.99,2.9992,2.9886,2.9945,2.9948,2.9948,3.018,3.0228,3.0395,3.01,3.0103,3.0106,0,2.989,2.9911,3.003,3.0021,3.0039,3.0091,3.0116,3.0152,3.0158,3.0142,3.0159,3.0111,3.0177,3.0088,3.0179,3.0109,3.013,3.0127,3.0132,3.0136,3.0037,3.0193,3.0447,3.0473,3.0141,3.0138,3.0136,0,3.0066,3.0124,3.0203,3.0211,3.0202,3.0241,3.0239,3.024,3.0261,3.0284,3.0298,3.0328,3.0345,3.0371,3.0334,3.0272,3.0432,3.0338,3.0423,3.0424,3.046,3.0459,3.0723,3.0473,3.0472,3.0472,3.0471,0,3.0261,3.0338,3.0282,3.0331,3.0415,3.0363,3.0449,3.0439,3.0441,3.0488,3.0423,3.0469,3.0416,3.0459,3.043,3.0512,3.0519,3.051,3.0502,3.0517,3.0518,3.0531,3.0519,3.0478,3.0477,3.0476,3.0474,0,3.0471,3.0437,3.0519,3.0504,3.0502,3.0565,3.0553,3.0599,3.0578,3.0639,3.065,3.0619,3.0665,3.063,3.0676,3.0656,3.0765,3.0739,3.0763,3.0756,3.0843,3.0836,3.1126,3.1162,3.0887,3.089,3.0892,0,3.0599,3.0656,3.0648,3.0674,3.0676,3.072,3.0742,3.0694,3.072,3.0732,3.0777,3.0818,3.0847,3.0925,3.0908,3.0943,3.0919,3.1018,3.0924,3.0938,3.0923,3.092,3.0927,3.1038,3.1041,3.1044,3.1046,0,3.083,3.0811,3.0844,3.0873,3.0901,3.0921,3.0936,3.0962,3.0913,3.0946,3.0992,3.1016,3.1062,3.1105,3.1134,3.1134,3.1083,3.1075,3.1097,3.1113,3.1125,3.1122,3.0816,3.1069,3.1067,3.1065,3.1064,3.1063,3.1004,3.1052,3.1054,3.1094,3.1101,3.1117,3.116,3.1145,3.1182,3.1216,3.1185,3.1242,3.1248,3.1282,3.1289,3.1334,3.1293,3.1324,3.1332,3.1341,3.1354,3.1117,3.1339,3.1338,3.1337,3.1337,3.1336,0,3.1233,3.1231,3.1268,3.1292,3.1324,3.1272,3.1287,3.1318,3.1368,3.1378,3.1409,3.1464,3.1504,3.149,3.1527,3.1566,3.1544,3.1577,3.1575,3.1576,3.1387,3.1365,3.1595,3.1595,3.1595,3.1595,3.1595,3.1595,3.1356,3.1435,3.1417,3.15,3.1497,3.1551,3.1564,3.158,3.1587,3.1651,3.1684,3.1674,3.1676,3.1712,3.1749,3.1743,3.1761,3.1804,3.1791,3.1615,3.1589,3.1565,3.1544,3.1807,3.1808,3.1976,3.1977,3.1979]},{"header":{"parameterUnit":"m.s-1","parameterCategory":1,"la1":30.2991,"la2":30.254,"lo1":-89.0895,"lo2":-89.0444,"dy":0.0017,"dx":0.0017,"nx":28,"ny":28,"refTime":"2025-04-01T03:00:00:Z","depth":0,"parameterNumber":3,"parameterNumberName":"V-component_of_WINDS"},"data":[0,0,0,0,0,0,0,0,0,0,0,0,0,0,0,0,0,0,0,0,0,0,0,0,0,0,0,0,0,0,0,0,0,0,0,0,0,0,0,0,0,0,0,0,0,0,0,0,0,0,0,0,0,0,0,0,0,0,-0.5485,-0.5482,0,-0.5196,-0.5193,-0.519,-0.5131,-0.5133,-0.5135,-0.5138,-0.4832,-0.4822,-0.4812,0,0,0,0,0,0,0,0,0,0,0,0,0,-0.5977,-0.5968,-0.5485,-0.5482,-0.5478,-0.5197,-0.5193,-0.5189,-0.5131,-0.5133,-0.5136,-0.5139,-0.4836,-0.4823,-0.4811,0,0,0,0,0,0,0,0,0,0,0,0,0,-0.5733,-0.5966,-0.5486,-0.5415,-0.5406,-0.5198,-0.5193,-0.5188,-0.513,-0.5133,-0.5137,-0.514,-0.484,-0.4825,-0.481,-0.4648,0,0,-0.4763,-0.4756,0,0,0,0,0,0,0,0,-0.5747,-0.5715,-0.5429,-0.542,-0.5409,-0.5203,-0.5254,-0.5007,-0.5129,-0.5235,-0.5138,-0.5141,-0.4952,-0.4928,-0.4866,-0.4634,-0.4621,-0.4761,-0.4752,-0.4746,-0.4741,0,0,0,0,0,0,0,-0.5764,-0.5727,-0.5371,-0.5425,-0.5413,-0.5395,-0.5364,-0.5207,-0.5078,-0.5226,-0.5221,-0.5188,-0.4947,-0.4881,-0.4859,-0.4616,-0.4762,-0.4748,-0.4739,-0.4733,-0.4236,-0.4232,0,0,0,0,0,0,-0.5795,-0.5742,-0.538,-0.5362,-0.559,-0.5384,-0.5349,-0.5266,-0.508,-0.5055,-0.5185,-0.5186,-0.4906,-0.4876,-0.4848,-0.4646,-0.4746,-0.4731,-0.4723,-0.424,-0.4235,-0.4231,0,0,0,0,0,0,-0.5806,-0.5763,-0.5392,-0.555,-0.5502,-0.5372,-0.5279,-0.5258,-0.5192,-0.5049,-0.5025,-0.5142,-0.4907,-0.4869,-0.4699,-0.4635,-0.4724,-0.4711,-0.4245,-0.4239,-0.4233,-0.4243,0,0,0,0,0,0,-0.582,-0.5767,-0.5707,-0.555,-0.5494,-0.525,-0.5275,-0.525,-0.5167,-0.5165,-0.5002,-0.4978,-0.4907,-0.4722,-0.4684,-0.4615,-0.4699,-0.425,-0.4242,-0.4235,-0.4247,-0.4238,-0.4229,0,0,0,0,0,-0.5838,-0.5719,-0.5704,-0.5661,-0.5416,-0.5247,-0.5214,-0.5138,-0.5162,-0.5099,-0.5007,-0.4983,-0.4648,-0.4705,-0.4661,-0.4587,-0.4254,-0.4244,-0.4236,-0.4251,-0.424,-0.423,0,0,0,0,0,0,-0.5868,-0.5697,-0.5679,-0.5506,-0.5392,-0.5237,-0.5155,-0.5127,-0.5001,-0.5005,-0.4912,-0.4875,-0.471,-0.4631,-0.4698,-0.4421,-0.4452,-0.4434,-0.4479,-0.4466,-0.4458,-0.448,-0.4686,0,0,0,0,0,-0.5856,-0.5736,-0.5591,-0.5453,-0.5397,-0.5286,-0.521,-0.5161,-0.5037,-0.4988,-0.4883,-0.4762,-0.4629,-0.4543,-0.4413,-0.4236,-0.4198,-0.4163,-0.4154,-0.4148,-0.4133,-0.4032,-0.4015,-0.4201,-0.4201,-0.4202,0,0,-0.5827,-0.5719,-0.5648,-0.5456,-0.5362,-0.5237,-0.5246,-0.5113,-0.5019,-0.4966,-0.48,-0.4719,-0.4577,-0.4403,-0.4321,-0.4332,-0.4073,-0.4136,-0.4132,-0.412,-0.4021,-0.4004,-0.3988,-0.4195,-0.4196,-0.4197,0,0,-0.5711,-0.5618,-0.5493,-0.5399,-0.5257,-0.5184,-0.5154,-0.5004,-0.4949,-0.4781,-0.4739,-0.4624,-0.4398,-0.4299,-0.4218,-0.4066,-0.4039,-0.4026,-0.3978,-0.3882,-0.3867,-0.3853,-0.3798,-0.378,-0.4012,-0.4012,-0.4011,0,-0.5692,-0.5506,-0.543,-0.53,-0.5217,-0.5167,-0.5038,-0.4949,-0.4771,-0.4713,-0.4729,-0.4444,-0.4345,-0.4147,-0.411,-0.4047,-0.4008,-0.4044,-0.3876,-0.3861,-0.3848,-0.3794,-0.3774,-0.4011,-0.4011,-0.4011,-0.4011,0,-0.549,-0.5361,-0.5276,-0.511,-0.5016,-0.4887,-0.4789,-0.4703,-0.4662,-0.4587,-0.4416,-0.4295,-0.414,-0.4089,-0.4047,-0.3884,-0.3896,-0.3895,-0.3924,-0.3831,-0.3779,-0.3757,-0.401,-0.401,-0.401,-0.4011,0,0,-0.5384,-0.5179,-0.5149,-0.5073,-0.4913,-0.481,-0.4678,-0.453,-0.4457,-0.4336,-0.4221,-0.4031,-0.403,-0.3939,-0.3885,-0.38,-0.3686,-0.3809,-0.3804,-0.379,-0.3499,-0.3501,-0.3478,-0.3668,-0.3664,-0.366,-0.3511,0,-0.5249,-0.5016,-0.4944,-0.4746,-0.4626,-0.4577,-0.4461,-0.4349,-0.4275,-0.416,-0.4076,-0.3944,-0.3952,-0.3897,-0.3811,-0.3719,-0.3627,-0.3728,-0.3558,-0.3553,-0.3595,-0.3451,-0.3452,-0.3317,-0.349,-0.3487,-0.3484,0,-0.506,-0.494,-0.4732,-0.4588,-0.4534,-0.4432,-0.429,-0.4181,-0.4052,-0.4004,-0.3904,-0.3857,-0.3714,-0.3752,-0.3553,-0.3624,-0.355,-0.3494,-0.3487,-0.3467,-0.3513,-0.3427,-0.3272,-0.3252,-0.3451,-0.3454,-0.3456,0,-0.5004,-0.4789,-0.4637,-0.4573,-0.4401,-0.4331,-0.4255,-0.413,-0.4046,-0.392,-0.3864,-0.3723,-0.3645,-0.3536,-0.3451,-0.3487,-0.3259,-0.329,-0.3213,-0.3216,-0.3167,-0.3171,-0.2997,-0.312,-0.3121,-0.3121,-0.3122,0,-0.486,-0.4735,-0.461,-0.4516,-0.4373,-0.4291,-0.415,-0.4072,-0.3961,-0.3849,-0.3797,-0.3692,-0.3587,-0.3468,-0.34,-0.3245,-0.321,-0.3166,-0.3149,-0.317,-0.3176,-0.312,-0.3127,-0.3116,-0.3117,-0.3118,-0.3119,0,-0.4774,-0.4685,-0.4516,-0.4368,-0.4328,-0.4229,-0.4101,-0.4007,-0.3932,-0.3791,-0.3753,-0.3633,-0.349,-0.3395,-0.3211,-0.3166,-0.2997,-0.2983,-0.3042,-0.3034,-0.2962,-0.297,-0.2746,-0.2712,-0.2859,-0.2858,-0.2856,0,-0.4688,-0.4591,-0.4434,-0.4357,-0.4282,-0.4158,-0.4072,-0.3986,-0.3899,-0.3745,-0.3669,-0.3523,-0.3402,-0.3176,-0.307,-0.2929,-0.2911,-0.2842,-0.2889,-0.2913,-0.2909,-0.2916,-0.2905,-0.2834,-0.2833,-0.2832,-0.2831,0,-0.4545,-0.4506,-0.4386,-0.4251,-0.4151,-0.4039,-0.3927,-0.3866,-0.376,-0.3663,-0.3519,-0.3425,-0.3239,-0.3094,-0.2944,-0.2863,-0.2828,-0.2818,-0.2792,-0.2812,-0.2851,-0.2829,-0.3021,-0.2823,-0.2824,-0.2824,-0.2825,-0.2825,-0.4455,-0.4366,-0.4242,-0.411,-0.4018,-0.3914,-0.3819,-0.3733,-0.3611,-0.3456,-0.3411,-0.326,-0.3132,-0.2927,-0.2844,-0.2722,-0.2729,-0.2692,-0.2683,-0.2675,-0.2675,-0.2871,-0.2694,-0.2694,-0.2694,-0.2694,-0.2695,0,-0.4309,-0.4227,-0.4107,-0.3953,-0.3849,-0.3829,-0.3704,-0.3617,-0.3486,-0.3371,-0.3254,-0.3087,-0.2946,-0.2831,-0.2686,-0.261,-0.2591,-0.2575,-0.2579,-0.2561,-0.2677,-0.2714,-0.2593,-0.2593,-0.2593,-0.2593,-0.2593,-0.2593,-0.422,-0.407,-0.4016,-0.3818,-0.3736,-0.359,-0.352,-0.3423,-0.3332,-0.3149,-0.3033,-0.296,-0.2844,-0.269,-0.256,-0.2529,-0.2477,-0.2465,-0.2431,-0.2541,-0.2553,-0.2564,-0.2597,-0.2455,-0.2454,-0.2324,-0.2323,-0.2322]}]]